Vancouver, British Columbia

3:37 AM PDT on April 26, 2017 (GMT -0700)
Vancouver International Airport

Weather History for CYVR - October, 2012

Change the Weather History Date:

Thursday, October 4, 2012

  Actual Average Record
Temperature  
Mean Temperature 50 °F -  
Max Temperature 58 °F 55 °F 66 °F (2014)
Min Temperature 41 °F 43 °F 41 °F (2012)
Degree Days  
Heating Degree Days 16    
Moisture  
Dew Point 43 °F    
Average Humidity 73    
Maximum Humidity 87    
Minimum Humidity 56    
Precipitation  
Precipitation 0.00 in 0.16 in - ()
Sea Level Pressure  
Sea Level Pressure 30.32 in    
Wind  
Wind Speed 8 mph ()    
Max Wind Speed 18 mph    
Max Gust Speed -    
Averages and records for this station are not official NWS values.
T = Trace of Precipitation, MM = Missing Value Source: Averaged Metar Reports

Daily Weather History Graph

Daily Weather History Graph

Search for Another Location

Airport or City:

Trip Planner

Search our weather history database for the weather conditions in past years. The results will help you decide how hot, cold, wet, or windy it might be!

Date:

Astronomy

Oct. 04, 2012 Rise Set
Actual Time 7:17 AM PDT 6:43 PM PDT
Civil Twilight 6:46 AM PDT 7:15 PM PDT
Nautical Twilight 6:09 AM PDT 7:52 PM PDT
Astronomical Twilight 5:31 AM PDT 8:29 PM PDT
Moon 8:58 PM PDT (10/4) 12:04 PM PDT (10/4)
Length of Visible Light 12h 29m
Length of Day
11h 26m
Waning Gibbous, 81% of the Moon is Illuminated
Oct 4
Waning Gibbous
Oct 8
Last Quarter
Oct 15
New
Oct 21
First Quarter
Oct 29
Full

Hourly Weather History & Observations

Time (PDT) Temp. Windchill Dew Point Humidity Pressure Visibility Wind Dir Wind Speed Gust Speed Precip Events Conditions
12:00 AM 50.0 °F - 39.2 °F 66% 30.32 in 30.0 mi NW 3.5 mph - N/A   Clear
1:00 AM 46.4 °F 44.3 °F 37.4 °F 71% 30.32 in 30.0 mi NW 4.6 mph - N/A   Clear
2:00 AM 46.4 °F 41.5 °F 41.0 °F 81% 30.31 in 30.0 mi NW 10.4 mph - N/A   Clear
3:00 AM 46.4 °F 43.5 °F 37.4 °F 71% 30.32 in 30.0 mi North 5.8 mph - N/A   Clear
4:00 AM 48.2 °F - 39.2 °F 71% 30.32 in 30.0 mi NNW 5.8 mph - N/A   Clear
5:00 AM 46 °F - 40 °F 73% 30.32 in 28 mi WNW 10.4 mph - -  
5:00 AM 46.4 °F 41.1 °F 41.0 °F 81% 30.32 in 30.0 mi WNW 11.5 mph - N/A   Clear
6:00 AM 42.8 °F 41.1 °F 37.4 °F 81% 30.32 in 30.0 mi North 3.5 mph - N/A   Clear
7:00 AM 42.8 °F - 37.4 °F 81% 30.33 in 30.0 mi Calm Calm - N/A   Clear
8:00 AM 44.6 °F 40.2 °F 41.0 °F 87% 30.34 in 30.0 mi NW 8.1 mph - N/A   Clear
9:00 AM 51.8 °F - 46.4 °F 82% 30.35 in 30.0 mi WNW 13.8 mph - N/A   Clear
10:00 AM 53.6 °F - 42.8 °F 67% 30.35 in 30.0 mi WNW 13.8 mph - N/A   Clear
11:00 AM 55 °F - 44 °F 56% 30.35 in 28 mi WNW 16.1 mph - -  
11:00 AM 55.4 °F - 44.6 °F 67% 30.35 in 30.0 mi WNW 16.1 mph - N/A   Clear
12:00 PM 55.4 °F - 44.6 °F 67% 30.35 in 30.0 mi NW 17.3 mph - N/A   Clear
1:00 PM 57.2 °F - 42.8 °F 59% 30.35 in 30.0 mi WNW 18.4 mph - N/A   Clear
2:00 PM 57.2 °F - 46.4 °F 67% 30.32 in 30.0 mi NW 18.4 mph - N/A   Partly Cloudy
3:00 PM 57.2 °F - 46.4 °F 67% 30.31 in 30.0 mi NW 17.3 mph - N/A   Partly Cloudy
4:00 PM 59.0 °F - 44.6 °F 59% 30.30 in 30.0 mi NW 16.1 mph - N/A   Partly Cloudy
5:00 PM 56 °F - 47 °F 63% 30.29 in 28 mi NW 13.8 mph - -   Clear
5:00 PM 55.4 °F - 46.4 °F 72% 30.29 in 30.0 mi NW 16.1 mph - N/A   Partly Cloudy
6:00 PM 55.4 °F - 46.4 °F 72% 30.28 in 30.0 mi NW 12.7 mph - N/A   Partly Cloudy
7:00 PM 53.6 °F - 46.4 °F 77% 30.28 in 30.0 mi NW 10.4 mph - N/A   Partly Cloudy
8:00 PM 51.8 °F - 44.6 °F 76% 30.28 in 30.0 mi NW 8.1 mph - N/A   Partly Cloudy
9:00 PM 50.0 °F - 44.6 °F 82% 30.28 in 30.0 mi WNW 8.1 mph - N/A   Partly Cloudy
10:00 PM 48.2 °F - 44.6 °F 87% 30.29 in 30.0 mi NW 8.1 mph - N/A   Partly Cloudy
11:00 PM 49 °F - 44 °F 76% 30.29 in 28 mi NNW 4.6 mph - -   Clear
11:00 PM 50.0 °F - 44.6 °F 82% 30.29 in 30.0 mi NNW 4.6 mph - N/A   Partly Cloudy